Home   Weather   Ludwigshafen   Past weeks

Flag for Germany Past Weather in Ludwigshafen, Rhineland-Palatinate, Germany — Yesterday and Last 2 Weeks

54 °F


Feels Like: 54 °F
Forecast: 50 / 59 °F
Wind: 2 mph from North

Location: Mannheim City

Current Time: Oct 24, 2016 at 10:06:36 PM

Latest Report: Oct 24, 2016 at 8:50 PM

Visibility: 2 mi

Pressure: 29.95 "Hg

Humidity: 100%

Dew Point: 54 °F

Location of LudwigshafenLocation

Past Weather in Ludwigshafen — Graph


Ludwigshafen Temperature Yesterday

Maximum temperature yesterday: 54 °F (at 3:20 PM)
Minimum temperature yesterday: 39 °F (at 6:50 AM)
Average temperature yesterday: 47 °F

High & Low Weather Summary for the Past Weeks

High63 °F (Oct 15, 5:50 PM)100% (Oct 10, 5:20 AM)30.24 "Hg (Oct 10, 5:20 AM)
Low39 °F (Oct 13, 5:20 AM)51% (Oct 11, 2:20 PM)29.65 "Hg (Oct 14, 5:50 PM)
Average51 °F86%30.02 "Hg
* Reported Oct 10 5:20 AM — Oct 24 8:50 PM, Ludwigshafen, Weather by CustomWeather, © 2016

Note: Actual official high and low records may vary slightly from our data, if they occured in-between our weather recording intervals... More about our weather records


Ludwigshafen Weather History for the Previous 24 Hours

Scroll right to see more
Time TempWeatherWind HumidityBarometerVisibility
8:50 PM
Mon, Oct 24
54 °FFog.2 mph100%29.95 "Hg2 mi
8:20 PM54 °FFog.2 mph100%29.95 "Hg2 mi
7:50 PM54 °FFog.2 mph100%29.95 "Hg3 mi
7:20 PM54 °FFog.2 mph100%29.95 "Hg3 mi
6:50 PM54 °FFog.3 mph100%29.92 "Hg3 mi
6:20 PM54 °FFog.3 mph100%29.92 "Hg3 mi
5:50 PM54 °FLight rain. Fog.2 mph100%29.92 "Hg2 mi
5:20 PM55 °FLight rain. Fog.2 mph100%29.92 "Hg3 mi
4:50 PM55 °FFog.No wind100%29.89 "Hg2 mi
4:20 PM54 °FFog.3 mph100%29.89 "Hg2 mi
3:50 PM54 °FFog.2 mph100%29.89 "Hg2 mi
3:20 PM54 °FFog.3 mph100%29.89 "Hg2 mi
2:50 PM54 °FDrizzle. Fog.3 mph100%29.89 "Hg2 mi
2:20 PM54 °FDrizzle. Fog.2 mph100%29.89 "Hg1 mi
1:50 PM54 °FFog.3 mph100%29.89 "Hg2 mi
1:20 PM54 °FFog.3 mph100%29.89 "Hg3 mi
12:50 PM54 °FDrizzle. Fog.2 mph100%29.92 "Hg2 mi
12:20 PM54 °FDrizzle. Fog.2 mph100%29.92 "Hg2 mi
11:50 AM54 °FFog.3 mph100%29.89 "Hg2 mi
11:20 AM52 °FFog.2 mph100%29.92 "Hg2 mi
10:50 AM52 °FDrizzle. Fog.2 mph100%29.92 "Hg2 mi
10:20 AM52 °FDrizzle. Fog.2 mph100%29.92 "Hg3 mi
9:50 AM52 °FDrizzle. Fog.3 mph100%29.92 "Hg2 mi
9:20 AM52 °FDrizzle. Fog.2 mph100%29.92 "Hg3 mi
8:50 AM52 °FDrizzle. Fog.5 mph100%29.92 "Hg3 mi
8:20 AM52 °FDrizzle. Mostly cloudy.2 mph100%29.89 "Hg4 mi
7:50 AM52 °FDrizzle. Overcast.2 mph100%29.89 "Hg5 mi
7:20 AM50 °FDrizzle. Overcast.5 mph100%29.89 "Hg4 mi
6:50 AM50 °FDrizzle. Fog.6 mph100%29.89 "Hg3 mi
6:20 AM50 °FLight rain. Fog.5 mph100%29.89 "Hg2 mi
5:50 AM50 °FLight rain. Fog.3 mph100%29.89 "Hg2 mi
Weather by CustomWeather, © 2016

See weather overviewHow to use our weather pages